When you browse on this site, cookies collect data to enhance your experience and personalize the content and advertising you see.
Visit our Privacy Policy to learn more. By continuing to use the site, you agree to this use of cookies and data.
  • In Latvia
  • List of Countries
  • For 7 days
  • Water Temperature
  • Satellite Maps
  • Weather Map
  • Weather Widgets
  • user-avatar
    Login

    Hourly Weather Sonnenberg

    Today, 19 December, Wednesday

    Time Temperature Precipitation Wind Pressure Humidity
    00:00 -1°C° 0 mm 2 mps 711 mmHg 64%
    01:00 -1°C° 0 mm 2 mps 711 mmHg 63%
    02:00 -1°C° 0 mm 2 mps 711 mmHg 62%
    03:00 +2°C° 0 mm 1 mps 711 mmHg 61%
    04:00 +2°C° 0 mm 1 mps 711 mmHg 60%
    05:00 +2°C° 0 mm 1 mps 711 mmHg 61%
    06:00 +3°C° 0 mm 1 mps 711 mmHg 62%
    07:00 +3°C° 0 mm 1 mps 711 mmHg 63%
    08:00 +3°C° 0.1 mm 1 mps 711 mmHg 64%
    09:00 +4°C° 0.1 mm 1 mps 711 mmHg 64%
    10:00 +5°C° 0.1 mm 1 mps 711 mmHg 65%
    11:00 +6°C° 0.2 mm 1 mps 711 mmHg 67%
    12:00 +6°C° 0.2 mm 1 mps 710 mmHg 68%
    13:00 +7°C° 0.2 mm 1 mps 710 mmHg 69%
    14:00 +6°C° 0.3 mm 1 mps 710 mmHg 73%
    15:00 +6°C° 0.3 mm 1 mps 709 mmHg 77%
    16:00 +5°C° 0.3 mm 1 mps 709 mmHg 81%
    17:00 +4°C° 0.7 mm 1 mps 709 mmHg 84%
    18:00 +4°C° 0.7 mm 1 mps 709 mmHg 87%
    19:00 +3°C° 0.7 mm 1 mps 710 mmHg 91%
    20:00 +3°C° 0.3 mm 1 mps 710 mmHg 91%
    21:00 +3°C° 0.3 mm 1 mps 710 mmHg 91%
    22:00 +3°C° 0.3 mm 1 mps 710 mmHg 91%
    23:00 +3°C° 0.3 mm 1 mps 710 mmHg 91%

    Tomorrow, 20 December, Thursday

    Time Temperature Precipitation Wind Pressure Humidity
    00:00 +3°C° 0.3 mm 1 mps 710 mmHg 91%
    01:00 +3°C° 0.3 mm 1 mps 710 mmHg 91%
    02:00 +3°C° 0.1 mm 1 mps 711 mmHg 92%
    03:00 +3°C° 0.1 mm 1 mps 711 mmHg 92%
    04:00 +3°C° 0.1 mm 1 mps 711 mmHg 92%
    05:00 +2°C° 0 mm 1 mps 711 mmHg 92%
    06:00 +2°C° 0 mm 1 mps 711 mmHg 92%
    07:00 +2°C° 0 mm 1 mps 712 mmHg 92%
    08:00 +3°C° 0 mm 1 mps 712 mmHg 91%
    09:00 +3°C° 0 mm 1 mps 712 mmHg 89%
    10:00 +3°C° 0 mm 2 mps 712 mmHg 87%
    11:00 +4°C° 0 mm 2 mps 712 mmHg 83%
    12:00 +5°C° 0 mm 2 mps 712 mmHg 79%
    13:00 +6°C° 0 mm 2 mps 712 mmHg 75%
    14:00 +6°C° 0 mm 2 mps 712 mmHg 78%
    15:00 +5°C° 0 mm 2 mps 712 mmHg 81%
    16:00 +5°C° 0 mm 1 mps 712 mmHg 85%
    17:00 +3°C° 0 mm 2 mps 713 mmHg 84%
    18:00 +3°C° 0 mm 2 mps 713 mmHg 84%
    19:00 +2°C° 0 mm 2 mps 714 mmHg 84%
    20:00 +2°C° 0 mm 2 mps 714 mmHg 82%
    21:00 +2°C° 0 mm 2 mps 714 mmHg 80%
    22:00 +2°C° 0 mm 2 mps 714 mmHg 78%
    23:00 +2°C° 0 mm 2 mps 714 mmHg 77%

    Day after tomorrow, 21 December, Friday

    Time Temperature Precipitation Wind Pressure Humidity
    00:00 +2°C° 0 mm 2 mps 714 mmHg 76%
    01:00 +1°C° 0 mm 3 mps 714 mmHg 75%
    02:00 +1°C° 0 mm 3 mps 713 mmHg 73%
    03:00 +1°C° 0 mm 3 mps 713 mmHg 72%
    04:00 +3°C° 0 mm 2 mps 712 mmHg 70%
    05:00 +2°C° 0.3 mm 3 mps 712 mmHg 72%
    06:00 +3°C° 0.3 mm 3 mps 712 mmHg 73%
    07:00 +3°C° 0.3 mm 3 mps 711 mmHg 75%
    08:00 +3°C° 0.8 mm 3 mps 711 mmHg 77%
    09:00 +4°C° 0.8 mm 3 mps 711 mmHg 79%
    10:00 +4°C° 0.8 mm 4 mps 711 mmHg 81%
    11:00 +5°C° 0.9 mm 4 mps 711 mmHg 82%
    12:00 +6°C° 0.9 mm 4 mps 711 mmHg 82%
    13:00 +6°C° 0.9 mm 5 mps 711 mmHg 82%
    14:00 +6°C° 0.5 mm 4 mps 711 mmHg 83%
    15:00 +7°C° 0.5 mm 4 mps 711 mmHg 83%
    16:00 +7°C° 0.5 mm 4 mps 711 mmHg 84%
    17:00 +7°C° 0.1 mm 4 mps 711 mmHg 84%
    18:00 +8°C° 0.1 mm 3 mps 711 mmHg 83%
    19:00 +8°C° 0.1 mm 3 mps 711 mmHg 83%
    20:00 +8°C° 1.7 mm 3 mps 711 mmHg 85%
    21:00 +8°C° 1.7 mm 3 mps 711 mmHg 88%
    22:00 +7°C° 1.7 mm 4 mps 711 mmHg 90%
    23:00 +7°C° 1 mm 4 mps 711 mmHg 89%

    22 December, Saturday

    Time Temperature Precipitation Wind Pressure Humidity
    00:00 +7°C° 1 mm 4 mps 711 mmHg 88%
    01:00 +9°C° 1 mm 3 mps 711 mmHg 88%
    02:00 +8°C° 0.5 mm 4 mps 710 mmHg 87%
    03:00 +8°C° 0.5 mm 4 mps 710 mmHg 87%
    04:00 +8°C° 0.5 mm 4 mps 710 mmHg 87%
    05:00 +8°C° 0.2 mm 5 mps 710 mmHg 86%
    06:00 +8°C° 0.2 mm 5 mps 710 mmHg 86%
    07:00 +8°C° 0.2 mm 5 mps 711 mmHg 85%
    08:00 +9°C° 0.3 mm 5 mps 711 mmHg 85%
    09:00 +9°C° 0.3 mm 5 mps 711 mmHg 84%
    10:00 +9°C° 0.3 mm 5 mps 712 mmHg 83%
    11:00 +9°C° 0.4 mm 5 mps 711 mmHg 83%
    12:00 +9°C° 0.4 mm 6 mps 711 mmHg 82%
    13:00 +10°C° 0.4 mm 6 mps 711 mmHg 81%
    14:00 +9°C° 0.2 mm 5 mps 712 mmHg 82%
    15:00 +9°C° 0.2 mm 5 mps 712 mmHg 83%
    16:00 +8°C° 0.2 mm 5 mps 712 mmHg 84%
    17:00 +8°C° 0.1 mm 4 mps 713 mmHg 85%
    18:00 +7°C° 0.1 mm 4 mps 713 mmHg 87%
    19:00 +6°C° 0.1 mm 4 mps 714 mmHg 88%
    20:00 +7°C° 0 mm 3 mps 714 mmHg 89%
    21:00 +7°C° 0 mm 3 mps 715 mmHg 89%
    22:00 +7°C° 0 mm 3 mps 715 mmHg 90%
    23:00 +5°C° 0 mm 3 mps 715 mmHg 90%

    23 December, Sunday

    Time Temperature Precipitation Wind Pressure Humidity
    00:00 +6°C° 0 mm 2 mps 715 mmHg 91%
    01:00 +6°C° 0 mm 2 mps 715 mmHg 91%
    02:00 +6°C° 0 mm 2 mps 715 mmHg 91%
    03:00 +6°C° 0 mm 2 mps 715 mmHg 90%
    04:00 +6°C° 0 mm 2 mps 715 mmHg 90%
    05:00 +6°C° 0.1 mm 2 mps 715 mmHg 90%
    06:00 +6°C° 0.1 mm 2 mps 716 mmHg 91%
    07:00 +6°C° 0.1 mm 2 mps 716 mmHg 91%
    08:00 +6°C° 0.2 mm 2 mps 716 mmHg 91%
    09:00 +7°C° 0.2 mm 1 mps 716 mmHg 91%
    10:00 +8°C° 0.2 mm 1 mps 716 mmHg 90%
    11:00 +8°C° 0.4 mm 1 mps 716 mmHg 90%
    12:00 +8°C° 0.4 mm 1 mps 716 mmHg 89%
    13:00 +8°C° 0.4 mm 2 mps 716 mmHg 89%
    14:00 +8°C° 0.4 mm 1 mps 716 mmHg 90%
    15:00 +8°C° 0.4 mm 1 mps 716 mmHg 91%
    16:00 +8°C° 0.4 mm 1 mps 716 mmHg 92%
    17:00 +8°C° 0.4 mm 1 mps 716 mmHg 93%
    18:00 +8°C° 0.4 mm 1 mps 716 mmHg 93%
    19:00 +7°C° 0.4 mm 1 mps 716 mmHg 94%
    20:00 +8°C° 0.8 mm 1 mps 716 mmHg 93%
    21:00 +8°C° 0.8 mm 1 mps 716 mmHg 93%
    22:00 +8°C° 0.8 mm 1 mps 716 mmHg 93%
    23:00 +8°C° 0.8 mm 1 mps 716 mmHg 93%

    24 December, Monday

    Time Temperature Precipitation Wind Pressure Humidity
    00:00 +7°C° 0.8 mm 2 mps 716 mmHg 93%
    01:00 +8°C° 0.8 mm 2 mps 716 mmHg 93%
    02:00 +8°C° 1.7 mm 2 mps 716 mmHg 93%
    03:00 +8°C° 1.7 mm 2 mps 716 mmHg 93%
    04:00 +8°C° 1.7 mm 2 mps 716 mmHg 93%
    05:00 +8°C° 1.2 mm 3 mps 716 mmHg 93%
    06:00 +9°C° 1.2 mm 3 mps 716 mmHg 92%
    07:00 +9°C° 1.2 mm 3 mps 716 mmHg 92%
    08:00 +9°C° 0.5 mm 3 mps 716 mmHg 92%
    09:00 +9°C° 0.5 mm 2 mps 717 mmHg 92%
    10:00 +9°C° 0.5 mm 2 mps 717 mmHg 92%
    11:00 +9°C° 0.5 mm 2 mps 717 mmHg 92%
    12:00 +9°C° 0.5 mm 2 mps 717 mmHg 93%
    13:00 +10°C° 0.5 mm 1 mps 717 mmHg 93%
    14:00 +10°C° 0.3 mm 1 mps 717 mmHg 93%
    15:00 +10°C° 0.3 mm 1 mps 717 mmHg 93%
    16:00 +10°C° 0.3 mm 1 mps 717 mmHg 93%
    17:00 +9°C° 0 mm 1 mps 717 mmHg 92%
    18:00 +9°C° 0 mm 1 mps 717 mmHg 92%
    19:00 +8°C° 0 mm 1 mps 717 mmHg 91%
    20:00 +8°C° 0 mm 1 mps 717 mmHg 91%
    21:00 +8°C° 0 mm 1 mps 717 mmHg 90%
    22:00 +8°C° 0 mm 1 mps 717 mmHg 89%
    23:00 +7°C° 0 mm 1 mps 717 mmHg 88%
    Show more